Location: Cerda�ola
(41.4919°N, 2.1403°E)
Time: 19:34:24
(UTC+00:00)

Lacrosse 4 Rocket - Pass Details

Date: 20 August 2020
Orbit: 544 x 615 km, 68.0° (Epoch: 01 October)

Event Time Altitude Azimuth Distance (km) Brightness Sun altitude
Rises 21:53:03 0° 256° (WSW) 2,790 5.2 -29.6°
Reaches altitude 10° 21:56:19 10° 282° (WNW) 1,878 4.5 -29.9°
Maximum altitude 21:58:29 14° 313° (NW) 1,642 4.5 -30.1°
Drops below altitude 10° 22:00:39 10° 345° (NNW) 1,862 4.8 -30.4°
Sets 22:03:52 0° 12° (NNE) 2,747 5.5 -30.7°
